Погода в Олекминске

Погода в Олекминске : погода сейчас, прогноз погоды и архив. Всё, что Вы хотите узнать о погоде в Олекминске!

Хотите узнать прогноз погоды в Олекминске? Тогда Вам сюда: Погода в Олекминске

Поиск расширенной информации на нашем сайте:

Другие новости

Новости СМИ2

Главная страница сайта

Новости сайта

03.07.2017

Напоминаем, что на нашем специализированном сайте Метеоцентр.Азия вы можете получить высокодетализированные автоматические прогнозы погоды по пунктам России, СНГ и мира в авиационном формате (включающие направление и скорость ветра, видимость, явления погоды, количество и форму облачности, нижнюю и верхнюю границу облачности).

Рекомендуем: ремонт iphone 3gs

Погода в Олекминске - сегодня

Время (UTC), дата Ветер
(°,м/с) 
Видим.   Явления Облачность Т
(°С)
Тd
(°С)
f(%) Тe
(°С)
Pmin
(гПа)
dP
(гПа)
Po
(мм)
O2
(г/м3)
Тmin Tmax R s Состояние
почвы
00 19.11.17 тихо ()   4000 м  слаб. снег  10/0 средняя, верхняя 
[Ac trans|Cs]
-27.3 -29.8 79 -27  1025.3  -0.3  745  335  -29.3    0.3  27  равномерный
сухой снег
100% 
03 19.11.17 230 (ЮЗ) 4000 м  слаб. снег  10/0 средняя, верхняя 
[Ac trans|Cs]
-25.5 -28 80 -29  1024.9  -0.1  745  333           
06 19.11.17 240 (ЮЗ) 4000 м  слаб. снег  10/0 средняя, верхняя 
[Ac trans|Cs]
-23.1 -25.7 79 -28  1023.8  -0.7  744  329           
09 19.11.17 нст () 10 км  слаб. снег  10/0 средняя, верхняя 
[Ac trans|Cs]
-24 -26.5 80 -24  1024.9  0.9  745  331           
12 19.11.17 тихо ()   10 км  слаб. снег  10/0 средняя, верхняя 
[Ac trans|Cs]
-27.4 -29.8 80 -27  1025.3  -0.1  745  335    -22.1  0.5     
15 19.11.17 тихо ()   20000 м  слаб. снег  10/0 средняя, верхняя 
[Ac trans|Cs]
-27.5 -29.3 85 -28  1023.6  -1.5  744  335           
18 19.11.17 040 (СВ) 20000 м  слаб. снег  10/0 средняя, верхняя 
[Ac trans|Cs]
-29 -30.7 85 -30  1021.9  -2  742  336           
21 19.11.17 040 (СВ) 20000 м  слаб. снег  10/0 верхняя 
[Cs]
-29.6 -31.3 85 -33  1018.7  -3  740  336           
00 20.11.17 050 (СВ) 10 км  слаб. снег  10/0 верхняя 
[Cs]
-31 -32.8 84 -35  1016.7  -2.3  738  337  -31    0.3  27  равномерный
сухой снег
100% 
03 20.11.17 060 (СВ) 20000 м  слаб. снег  10/0 верхняя 
[Cs]
-30.3 -32.1 84 -36  1014  -2.5  736  336           
06 20.11.17 060 (СВ) 20000 м  слаб. снег  10/0 верхняя 
[Cs]
-28.5 -30.4 84 -32  1012  -1.8  735  333           
09 20.11.17 тихо ()   20000 м  слаб. снег  10/0 верхняя 
[Cs]
-32.6 -34.2 86 -33  1012  -0.5  735  338           
12 20.11.17 230 (ЮЗ) 20000 м  {снег}  10/0 верхняя 
[Cs]
-32.6 -35.5 75 -33  1011.2  -0.8  734  338  -28.1    0.0     
15 20.11.17 тихо ()   20000 м    10/0 верхняя 
[Ci fib]
-34.5 -38.1 70 -35  1011.5  734  341           
18 20.11.17 тихо ()   20000 м    10/0 верхняя 
[Ci fib]
-33.5 -37.2 69 -34  1012.3  1.1  735  339           
21 20.11.17 250 (З) 20000 м    10/0 средняя, верхняя 
[Ac trans|Ci fib]
-30.5 -33.6 74 -34  1013.2  1.2  736  336           
00 21.11.17 240 (ЮЗ) 20000 м  слаб. снег  10/0 средняя, верхняя 
[Ac trans|Cs]
-29.9 -33 74 -34  1013.8  0.8  736  335  -34.8    0.0  27  равномерный
сухой снег
100% 
03 21.11.17 230 (ЮЗ) 20000 м    10/0 средняя, верхняя 
[Ac trans|Ci fib]
-27.4 -30.5 75 -35  1013.7  0.2  737  332           
06 21.11.17 240 (ЮЗ) 20000 м  слаб. снег  10/3 1000 м средняя, верхняя 
[Sc|Ac trans|Cs]
-24.9 -28.1 75 -31  1013.2  -0.2  736  328           
09 21.11.17 250 (З) 5{10}  4000 м  слаб. снег  10/0 средняя, верхняя 
[Ac trans|Cs]
-22.7 -25.2 80 -30  1013.1  -0.1  736  325           
12 21.11.17 250 (З) 4000 м  слаб. снег  10/0 средняя 
[As op]
-21.8 -24.3 80 -28  1013.7  0.7  737  324    -21.8  0.3     
15 21.11.17 240 (ЮЗ) 4000 м  слаб. снег  10/0 средняя 
[As op]
-21.8 -24.3 80 -28  1014.3  0.6  737  325           
18 21.11.17 240 (ЮЗ) 4000 м  слаб. снег  10/0 средняя 
[As op]
-21.4 -23.9 80 -27  1014.5  0.2  738  324           
21 21.11.17 240 (ЮЗ) 4000 м  слаб. снег  10/0 средняя 
[As op]
-21.5 -24 80 -27  1014.9  0.4  738  324           
00 22.11.17 240 (ЮЗ) 4000 м  слаб. снег  10/0 средняя 
[As op]
-21.2 -23.1 85 -27  1015.5  0.6  738  324  -22.3    26  равномерный
сухой снег
100% 
Время (UTC), дата Ветер
(°,м/с) 
Видим.   Явления Облачность Т
(°С)
Тd
(°С)
f(%) Тe
(°С)
Pmin
(гПа)
dP
(гПа)
Po
(мм)
O2
(г/м3)
Тmin Tmax R s Состояние
почвы

Для получения пояснительной информации подведите курсор к названию столбца.

ПОГОДА в Олекминске - архив

Всё, что Вы хотите узнать о погоде в Олекминске - удобно и подробно!

Выберите нужную дату (начиная с 1 января 2015* года) и нажмите кнопку "Найти".
Будут отображены архивные сводки погоды по пункту Олекминск, начиная с указанной даты.


Отображать данные в формате CSV (для использования в таблицах Excel)


Внимание! Наш архив погоды предназначен исключительно для личного некоммерческого использования в познавательных целях. Если Вам необходимы официальные справки о состоянии погоды (для производственных, юридических, коммерческих и т.п. целей), обращайтесь в органы Росгидромета.

*Примечание: данная дата относится к архиву по метеостанциям СССР (Россия, СНГ, Балтия).
Архив по метеостанциям Зарубежной Европы и Азии (кроме Китая) хранится 10 дней, по другим регионам земного шара (Китай, Африка, Америка, Австралия, Океания) - 1 день.

Олекминск - район местоположения метеостанции


Название, широта, долгота, высота метеостанции:
Олекминск 60.4°ш. 120.4°д. 226 м над ур. моря [Российская Федерация]

Дополнительная информация

В oтличие oт бoльшинства пoгoдных сайтoв мы публикуем пoдрoбную метеoинфoрмацию в детальнoм прoфессиoнальнoм фoрмате.

Характеристики температуры и влажнoсти вoздуха измеряются на высoте 2 м в тени вдали oт зданий и деревьев.
Скoрoсть ветра измеряется на высoте 10 м (на урoвне рoста челoвека скoрoсть ветра ниже в 1.5-2 раза). Если метеoстанция нахoдится в гoрoде или в лесу, тo скoрoсть ветра занижена на 2-4 м/с пo сравнению с oткрытым местoм. Скoрoсть ветра над акватoриями крупных рек и oзёр, а также на вершинах хoлмoв на 2-5 м/с выше, чем в oбычных услoвиях.
Атмoсфернoе давление в разных тoчках местнoсти мoжет значительнo oтличаться oт давления на метеoстанции, в зависимoсти oт услoвий рельефа (при пoдъёме на 10 м давление пoнижается примернo на 1 мм рт.ст.).